RH
52 59 56 55 56 62 60 66 67 70 66 66 66 62 60 59 60 64 64 57 64 60 58 60 60 60 42 36 36 37 38 37 41 35 33 35 54 52 48 48 39 37 29
54 58 65 60 58 55 57 57 62 65 66 65 64 65 60 58 61 62 59 50 60 60 57 60 59 44 62 60 42 55 50 51 46 63 53 41 49 53 51 57 41 30 36
58 56 62 57 57 59 59 56 57 62 63 62 65 66 65 65 67 60 60 57 56 56 56 57 56 56 63 52 56 52 43 41 45 43 44 37 38 40 46 50 48 46 29
61 62 68 68 63 58 59 62 64 65 61 60 61 60 59 59 64 60 59 61 59 55 56 54 55 55 61 63 59 64 59 59 54 48 44 40 37 44 42 38 35 32 34
67 66 67 70 69 69 69 66 63 64 60 60 61 59 57 54 48 60 58 60 61 58 56 54 53 60 76 73 50 58 67 56 44 42 41 39 36 40 48 37 38 35 41
89 88 79 77 81 77 72 70 70 67 66 65 63 60 59 45 94 85 77 56 59 61 60 59 58 70 75 90 92 91 85 74 73 55 44 46 64 54 42 43 46 44 46
84 80 79 78 80 80 75 69 68 68 68 73 68 66 72 77 98 99 95 61 58 61 66 64 54 38 62 53 83 92 94 95 95 82 74 67 72 65 66 68 67 58 54
87 79 75 81 92 95 91 80 78 71 72 71 69 85 82 69 91 97 99 71 64 62 61 64 68 68 86 84 65 61 57 55 66 66 68 66 64 63 69 69 73 74 60
84 78 71 74 87 91 86 77 75 73 70 80 88 85 75 74 90 93 94 75 77 86 89 88 83 86 98 98 77 72 68 63 60 82 87 89 91 90 86 62 54 48 47
76 67 65 63 65 66 70 76 87 83 83 70 72 72 78 67 86 89 84 54 72 72 90 92 99 82 100 99 73 73 72 65 67 66 65 70 83 80 97 82 61 57 55
69 64 64 63 65 66 71 72 73 71 70 69 65 63 64 69 70 84 86 52 55 47 47 50 52 95 99 100 98 67 71 76 67 61 56 56 63 66 75 87 90 94 94
76 67 70 63 53 56 68 67 69 70 71 68 64 51 52 59 73 75 81 82 82 45 46 39 47 93 97 100 85 99 100 92 49 50 51 51 58 61 56 57 67 65 58
61 64 65 64 61 63 65 66 56 62 51 52 53 49 46 44 44 70 75 74 71 52 46 61 86 87 88 72 99 95 99 52 47 47 48 50 52 48 56 56 63 68 71
62 61 58 58 60 54 42 42 44 45 46 46 48 52 52 52 49 48 45 39 56 50 59 42 58 75 80 64 62 50 41 42 50 48 48 44 41 41 40 37 40 41 42
52 48 48 44 49 52 52 52 45 55 59 44 45 44 45 46 50 73 72 50 59 65 82 37 34 34 35 35 36 38 37 43 49 49 48 45 42 40 39 37 38 36 37
48 40 34 32 32 34 38 46 82 80 86 86 82 66 45 74 84 87 88 88 87 92 59 43 43 45 46 43 42 44 46 53 50 50 48 46 48 48 47 45 42 41 42
45 42 32 35 30 31 32 33 40 58 83 86 83 80 79 85 84 84 84 83 82 64 32 35 39 45 51 54 53 53 49 46 58 46 48 47 46 46 50 48 46 44 44
42 66 30 29 29 29 31 32 28 32 34 41 72 65 74 76 77 80 78 71 32 36 30 33 35 35 36 39 39 40 48 54 53 56 56 48 45 44 44 45 45 47 46
34 27 30 28 28 32 29 29 27 32 32 31 32 62 58 67 71 74 72 34 33 31 32 34 36 36 38 41 42 45 48 44 50 48 52 55 56 55 53 47 45 64 64
33 51 41 28 29 28 27 26 28 32 32 31 28 32 33 40 34 36 37 39 36 34 35 37 39 41 43 46 47 47 46 44 43 43 45 63 66 68 69 69 68 68 65
28 31 41 28 27 27 26 26 26 26 27 29 32 45 81 40 34 35 36 38 39 40 42 42 47 48 48 50 51 51 47 46 47 48 52 59 58 60 61 61 64 64 67
26 27 27 26 28 31 30 28 27 26 27 28 32 43 69 36 34 36 40 40 41 44 42 48 51 52 53 56 58 54 55 57 63 64 63 68 72 70 65 57 53 53 54
24 25 27 28 29 45 34 28 28 30 30 32 31 29 30 34 34 39 45 44 44 44 45 47 54 60 59 62 63 67 69 65 60 62 67 67 66 61 55 54 52 50 49
23 25 26 29 33 30 30 30 33 49 32 32 34 34 34 35 35 40 40 44 49 46 45 49 53 62 65 65 64 61 63 67 71 73 74 76 77 73 62 59 56 56 62
24 24 25 28 32 30 33 31 32 34 33 34 34 35 34 36 37 39 42 45 50 56 61 64 63 68 75 80 78 69 79 93 88 91 92 91 92 93 87 81 78 74 72
33 25 25 26 29 31 33 33 35 35 35 34 35 37 39 39 38 41 44 47 52 53 60 62 68 77 77 74 78 88 94 97 91 96 95 91 93 91 88 90 89 87 85
Wind_Speed
10 10 9 8 7 6 6 5 5 7 8 8 8 7 8 8 7 7 5 4 7 7 6 6 6 5 7 5 5 6 6 7 8 9 9 6 7 9 9 9 10 10 5
9 11 10 9 8 8 7 6 5 6 7 5 7 7 8 9 8 8 8 6 8 8 8 7 8 7 7 7 7 6 8 8 8 9 8 8 7 8 8 9 7 10 8
7 9 10 11 9 9 8 9 8 7 7 7 7 7 8 8 9 9 9 8 8 8 8 8 7 8 7 7 5 8 7 6 7 8 8 9 7 8 7 8 8 8 8
6 7 8 9 9 9 9 9 9 9 9 9 8 8 7 7 7 8 8 8 8 8 7 7 7 8 7 7 7 6 7 7 8 7 9 8 9 6 6 8 9 8 8
3 4 5 5 6 7 7 8 7 7 8 8 8 8 8 7 8 9 7 7 8 8 8 8 9 9 6 8 8 6 7 8 8 8 9 9 9 8 10 9 10 9 9
9 5 4 7 5 6 6 7 6 6 6 5 7 8 8 8 9 3 5 7 9 9 9 9 10 9 10 11 11 10 9 10 10 10 11 10 9 9 8 9 11 11 12
6 5 5 3 4 5 6 6 5 5 4 4 3 5 2 7 16 11 6 9 8 9 9 8 8 9 7 9 11 13 12 13 14 11 13 12 12 11 10 11 10 10 11
7 7 5 6 5 4 2 6 5 5 4 4 3 8 6 9 13 12 9 11 10 9 8 7 8 8 8 8 10 11 12 12 11 10 12 12 13 11 9 10 12 12 12
7 8 8 7 6 3 3 3 1 3 4 7 10 9 9 11 17 15 13 4 3 7 10 9 8 6 7 10 9 11 11 12 10 11 11 11 12 13 10 10 12 13 13
5 9 7 6 7 7 6 4 4 6 7 8 9 9 10 10 19 20 16 4 3 2 4 5 5 7 7 8 7 8 10 8 9 12 12 11 10 11 14 9 10 12 12
6 8 8 6 7 6 6 6 6 7 8 8 9 10 10 8 14 17 18 6 6 3 3 2 5 7 6 5 4 6 7 10 11 10 8 7 8 8 4 5 7 8 9
4 6 7 5 4 6 6 6 6 6 7 7 7 7 7 8 12 12 12 10 14 4 5 5 5 10 8 6 5 7 6 7 7 8 7 6 6 7 7 8 10 11 11
6 6 6 6 5 5 6 6 7 5 4 5 3 3 4 5 5 9 4 7 9 6 6 7 11 12 11 8 7 7 6 7 7 7 7 6 8 8 9 9 8 10 11
5 5 5 5 5 3 4 3 3 2 4 2 4 3 3 4 6 8 8 8 5 7 5 7 5 8 9 7 7 5 6 6 6 6 7 8 8 8 8 9 10 10 10
5 4 4 5 4 6 8 9 7 9 9 2 4 4 3 3 6 6 6 7 6 6 11 6 5 5 6 6 6 7 7 7 7 8 9 9 8 8 9 8 9 10 10
6 5 3 4 4 5 7 8 16 12 13 13 14 13 8 8 6 6 6 10 11 8 2 5 5 6 7 9 8 8 9 6 7 9 10 9 9 10 10 11 11 10 10
3 4 4 3 3 4 4 6 8 7 9 9 9 10 9 6 8 11 12 12 13 9 3 4 5 6 6 7 8 7 9 9 9 8 10 10 10 9 10 10 11 11 11
4 5 3 4 3 3 3 3 2 4 5 8 5 4 6 5 7 10 13 12 1 3 6 6 6 6 7 7 7 8 6 8 10 10 11 12 11 12 11 10 11 13 13
5 4 3 3 3 2 3 3 3 3 3 3 7 6 6 6 7 8 10 5 5 6 6 6 6 7 8 8 8 9 10 9 9 11 9 10 12 13 13 13 13 11 11
5 7 2 5 6 5 5 5 4 4 3 3 4 5 4 2 4 5 4 5 6 6 6 7 7 8 8 9 10 10 10 11 11 10 10 9 10 10 11 12 12 13 14
5 7 2 4 4 3 3 3 3 3 3 3 6 7 6 6 3 4 5 5 6 6 7 7 7 7 8 9 9 10 11 11 11 12 12 12 12 11 11 12 12 13 13
7 7 7 5 4 4 4 3 3 3 3 4 4 8 7 4 3 3 4 5 5 5 6 6 6 7 8 8 9 10 11 11 11 12 12 11 11 13 14 16 16 15 14
7 8 7 6 5 5 5 4 4 3 4 3 2 1 1 2 2 3 4 5 4 4 5 5 5 6 7 8 8 9 11 11 11 12 13 14 14 14 15 15 17 17 17
8 8 8 7 7 8 6 5 4 2 1 4 3 1 0 0 1 2 1 3 5 5 5 5 6 8 8 9 8 9 9 10 10 12 18 14 14 17 16 17 18 21 17
10 10 10 9 8 8 6 6 5 4 4 3 3 1 1 2 3 3 4 3 4 5 6 7 6 9 11 14 14 15 11 11 16 18 11 15 17 19 17 14 17 17 20
11 11 11 10 9 8 8 7 6 5 5 3 3 2 0 1 1 3 3 3 4 5 6 5 8 11 13 12 13 13 14 16 17 17 13 11 12 12 12 15 21 14 17
Wind_Direction
204 200 218 209 206 201 223 204 180 176 183 190 199 199 201 200 207 205 242 202 214 225 250 244 249 260 269 276 269 273 277 279 284 299 329 319 328 312 328 329 306 294 339
193 202 206 215 213 210 220 204 186 169 195 206 194 202 208 207 200 207 221 222 219 234 238 244 250 250 238 251 267 273 302 314 295 299 298 288 302 322 308 306 314 317 341
185 210 212 213 211 218 208 218 203 193 185 194 198 211 217 211 208 212 215 218 226 236 243 246 254 242 246 276 292 300 286 259 253 265 290 288 312 290 317 294 293 302 285
166 209 204 221 215 219 210 208 221 216 213 209 211 219 212 214 215 202 208 216 224 227 234 245 252 254 257 261 258 266 269 277 272 261 277 289 296 302 265 295 317 317 325
161 186 190 207 212 207 203 200 209 216 221 221 218 218 216 212 205 201 205 217 224 234 234 240 231 242 272 268 282 263 272 263 268 275 276 281 280 339 331 310 296 320 308
188 194 220 197 205 199 190 192 189 207 215 224 228 228 224 237 25 109 265 219 221 229 236 237 251 221 232 230 237 255 272 270 269 284 293 296 300 284 304 322 321 312 310
144 166 184 189 198 234 190 188 182 197 198 203 214 232 48 37 4 343 262 249 239 233 239 259 259 248 213 260 221 227 246 236 234 260 272 278 291 283 295 291 288 302 297
149 151 159 138 87 15 227 189 170 188 188 186 180 95 94 54 13 356 309 248 238 244 251 256 264 279 30 318 285 276 268 265 230 223 242 258 261 280 291 278 282 282 267
118 132 131 131 124 117 137 91 71 142 152 71 50 64 65 40 9 15 340 299 320 43 49 46 47 61 14 357 301 281 283 283 268 235 264 291 290 284 272 284 276 283 290
136 122 121 142 134 133 134 125 100 81 104 102 94 90 73 54 28 21 6 29 35 119 94 94 67 37 5 353 336 324 305 318 318 301 294 278 249 257 246 245 275 277 292
109 107 102 108 110 116 117 110 127 130 116 114 108 97 81 41 46 26 17 42 355 8 9 46 81 41 4 330 314 313 336 326 309 292 295 304 314 303 301 230 278 276 280
100 97 108 104 115 113 105 105 99 111 114 124 138 145 114 92 38 44 20 15 350 358 22 21 11 342 324 301 285 359 311 295 289 305 308 303 313 307 298 304 305 294 291
119 123 104 103 105 116 122 130 135 135 145 141 136 108 84 76 52 70 35 345 2 333 8 332 281 279 280 272 203 282 277 261 285 289 318 324 329 325 307 303 322 315 300
113 116 119 120 109 103 105 91 81 104 125 118 124 120 86 37 27 5 355 343 339 306 344 289 290 271 269 282 273 255 273 306 318 311 315 315 318 320 325 330 322 321 305
132 126 134 124 120 101 57 18 94 52 17 25 32 40 1 49 31 340 331 331 329 336 310 298 329 335 331 324 322 312 300 337 333 344 323 322 321 320 318 324 319 310 310
155 163 109 138 144 133 130 100 61 68 68 66 50 36 112 68 343 313 327 314 298 290 278 11 2 13 351 344 342 349 345 348 331 326 317 321 320 320 323 320 303 309 305
148 139 127 201 153 152 156 156 136 102 79 86 80 67 49 12 340 341 338 323 284 291 5 16 18 2 2 343 336 341 335 337 324 321 320 316 312 311 308 313 308 305 302
136 8 175 148 144 142 136 131 156 177 168 144 134 71 79 16 338 323 320 297 150 44 26 15 6 357 349 346 329 326 323 321 323 331 322 312 309 311 308 303 304 306 308
178 169 164 145 116 89 135 138 126 136 129 135 143 193 143 195 253 272 294 10 24 29 20 11 3 355 350 341 336 331 329 319 319 304 302 304 317 317 313 308 307 307 300
167 45 269 151 162 164 164 156 146 145 144 112 93 46 15 211 48 32 35 20 25 19 13 3 1 354 347 341 336 333 325 324 319 314 319 326 313 312 310 311 314 315 311
163 161 288 185 171 163 147 146 138 138 125 97 93 60 346 315 47 36 24 25 21 10 7 1 352 345 344 341 336 328 319 320 317 315 321 322 315 300 298 298 297 295 292
184 174 196 186 159 181 168 161 161 142 127 129 134 136 241 264 42 33 26 15 13 1 357 351 343 342 337 334 329 322 324 318 314 313 312 299 298 299 296 294 290 283 282
207 188 191 178 183 111 193 177 163 152 141 137 134 127 144 54 40 36 7 359 351 342 350 342 332 319 323 317 312 308 307 308 312 317 311 306 301 294 292 290 289 289 290
210 208 199 191 183 200 178 177 131 26 209 165 166 152 39 338 353 67 313 19 326 332 336 333 330 322 313 315 310 308 307 309 317 307 304 299 293 291 286 282 283 285 283
220 208 207 198 179 209 162 200 182 177 176 181 168 167 50 5 358 356 360 349 314 319 316 314 309 314 312 311 305 301 305 315 299 289 283 278 276 276 271 272 272 276 277
223 214 215 206 197 200 191 191 191 188 190 189 202 193 235 317 331 344 353 344 313 293 304 305 305 302 304 303 299 321 306 288 290 291 291 286 279 274 268 266 268 267 269